Skip Page Navigation
NASA JPL Caltech
NASA Logo - Jet Propulsion Laboratory + View the NASA Portal
+ Center for Near-Earth Object Studies
JPL Home Earth Solar System Stars & Galaxies Technology
JPL Solar System Dynamics
BODIES ORBITS EPHEMERIDES TOOLS PHYSICAL DATA DISCOVERY FAQ SITE MAP
JPL Small-Body Database Browser
Search: [ help ]  
15307 (1992 XK)
Classification: Main-belt Asteroid          SPK-ID: 2015307
Ephemeris | Orbit Diagram | Orbital Elements | Mission Design | Physical Parameters | Discovery Circumstances ]

[ show orbit diagram ]
Orbital Elements at Epoch 2459396.5 (2021-Jul-01.0) TDB
Reference: JPL 31 (heliocentric ecliptic J2000)
 Element Value Uncertainty (1-sigma)   Units 
e .2127004834207547 3.2124e-08  
a 2.39969191938707 6.2022e-09 au
q 1.889276288072562 7.7466e-08 au
i 1.167144163496129 2.8743e-06 deg
node 282.4166577606377 0.00018526 deg
peri 118.9456417277547 0.0001854 deg
M 271.444589911445 7.7835e-06 deg
tp 2459730.498301511057
(2022-May-30.99830151)
3.0028e-05 TDB
period 1357.78704456048
3.72
5.264e-06
1.441e-08
d
yr
n .2651373066507149 1.0279e-09 deg/d
Q 2.910107550701578 7.5214e-09 au
  Orbit Determination Parameters
   # obs. used (total)      2013  
   data-arc span      25405 days (69.56 yr)  
   first obs. used      1951-11-30  
   last obs. used      2021-06-20  
   planetary ephem.      DE441  
   SB-pert. ephem.      SB441-N16  
   condition code      0  
   norm. resid. RMS      .49658  
   source      ORB  
   producer      Otto Matic  
   solution date      2021-Jul-08 03:47:51  

Additional Information
 Earth MOID = .897405 au 
 Jupiter MOID = 2.5053 au 
 T_jup = 3.495 
[ show covariance matrix ]

Ephemeris | Orbit Diagram | Orbital Elements | Mission Design | Physical Parameters | Discovery Circumstances ]

Physical Parameter Table
Parameter Symbol Value Units Sigma Reference Notes
absolute magnitude H 14.46   n/a E2021B10  

15307 (1992 XK)          Discovered 1992-Dec-15 by Otomo, S. at Kiyosato
Reference: 20000621/Numbers.arcLast Updated: 2004-04-19

Alternate Designations
 1992 XK = 1999 RA150 
Ephemeris | Orbit Diagram | Orbital Elements | Mission Design | Physical Parameters | Discovery Circumstances ]
ABOUT SSD CREDITS/AWARDS PRIVACY/COPYRIGHT GLOSSARY LINKS
FirstGov 2021-Jul-31 13:45 UT
(server date/time)  
NASA Home Page
Site Manager:   Ryan S. Park
Webmaster  Alan B. Chamberlin